Location: Bucharest
(44.4268°N, 26.1025°E)
Time: 07:11:41
(UTC+03:00)

ESTCUBE 1 - Pass Details

Date: 01 July 2022
Orbit: 646 x 657 km, 97.9° (Epoch: 13 August)

Event Time Altitude Azimuth Distance (km) Brightness Sun altitude
Exits shadow 22:56:53 25° 135° (SE) 1,307 ? -15.0°
Maximum altitude 22:59:13 50° 72° (ENE) 824 ? -15.3°
Drops below altitude 10° 23:03:33 10° 357° (N) 2,059 ? -15.7°
Sets 23:05:49 0° 353° (N) 2,976 ? -15.9°
